Fort Stockton, TX

6:14 PM CDT on April 28, 2017 (GMT -0500)
Fort Stockton-Pecos County

Weather History for KFST - January, 2013

Change the Weather History Date:

Friday, January 4, 2013

  Actual Average Record
Temperature  
Mean Temperature 30 °F -  
Max Temperature 34 °F 59 °F 81 °F (2005)
Min Temperature 26 °F 35 °F 19 °F (1999)
Degree Days  
Heating Degree Days 35    
Moisture  
Dew Point 27 °F    
Average Humidity 90    
Maximum Humidity 96    
Minimum Humidity 81    
Precipitation  
Precipitation 0.02 in - - ()
Sea Level Pressure  
Sea Level Pressure 30.36 in    
Wind  
Wind Speed 7 mph (ESE)    
Max Wind Speed 12 mph    
Max Gust Speed -    
Visibility 8 miles    
Events Snow    
Averages and records for this station are not official NWS values.
T = Trace of Precipitation, MM = Missing Value Source: NWS Daily Summary

Daily Weather History Graph

Daily Weather History Graph

Search for Another Location

Airport or City:

Trip Planner

Search our weather history database for the weather conditions in past years. The results will help you decide how hot, cold, wet, or windy it might be!

Date:

Astronomy

Jan. 04, 2013 Rise Set
Actual Time 7:50 AM CST 6:03 PM CST
Civil Twilight 7:23 AM CST 6:29 PM CST
Nautical Twilight 6:53 AM CST 6:59 PM CST
Astronomical Twilight 6:24 AM CST 7:29 PM CST
Moon 12:11 AM CST (1/4) 12:05 PM CST (1/4)
Length of Visible Light 11h 06m
Length of Day
10h 13m
Waning Gibbous, 55% of the Moon is Illuminated
Jan 4
Waning Gibbous
Jan 4
Last Quarter
Jan 11
New
Jan 18
First Quarter
Jan 26
Full

Hourly Weather History & Observations

Time (CST) Temp. Windchill Dew Point Humidity Pressure Visibility Wind Dir Wind Speed Gust Speed Precip Events Conditions
12:03 AM 28.4 °F 19.7 °F 26.6 °F 93% 30.40 in 1.8 mi ENE 9.2 mph - 0.01 in Snow Light Snow
12:22 AM 28.4 °F 21.2 °F 26.6 °F 93% 30.40 in 2.5 mi East 6.9 mph - 0.01 in Snow Light Snow
12:33 AM 28.4 °F 20.4 °F 26.6 °F 93% 30.39 in 3.0 mi ENE 8.1 mph - 0.01 in Snow Light Snow
12:42 AM 28.4 °F 19.1 °F 26.6 °F 93% 30.38 in 2.5 mi ENE 10.4 mph - 0.01 in Snow Light Snow
12:53 AM 28.9 °F 20.4 °F 27.0 °F 92% 30.39 in 1.5 mi ENE 9.2 mph - 0.01 in Snow Light Snow
1:10 AM 28.4 °F 20.4 °F 26.6 °F 93% 30.37 in 3.0 mi ENE 8.1 mph - 0.01 in Snow Light Snow
1:53 AM 28.0 °F 22.8 °F 27.0 °F 96% 30.40 in 6.0 mi ENE 4.6 mph - 0.01 in Snow Light Snow
2:53 AM 28.0 °F 22.8 °F 27.0 °F 96% 30.39 in 10.0 mi NE 4.6 mph - 0.00 in   Overcast
3:37 AM 28.4 °F 21.2 °F 26.6 °F 93% 30.38 in 10.0 mi ENE 6.9 mph - N/A   Overcast
3:53 AM 28.0 °F 21.7 °F 27.0 °F 96% 30.39 in 8.0 mi ENE 5.8 mph - N/A   Overcast
4:53 AM 28.0 °F 22.8 °F 27.0 °F 96% 30.38 in 10.0 mi East 4.6 mph - N/A   Overcast
5:15 AM 28.4 °F 24.6 °F 26.6 °F 93% 30.38 in 10.0 mi East 3.5 mph - N/A   Overcast
7:24 AM 28.4 °F 24.6 °F 26.6 °F 93% 30.38 in 10.0 mi East 3.5 mph - N/A   Overcast
7:53 AM 28.9 °F 23.9 °F 27.0 °F 92% 30.39 in 10.0 mi SE 4.6 mph - N/A   Overcast
8:26 AM 28.4 °F 19.7 °F 26.6 °F 93% 30.38 in 10.0 mi SSE 9.2 mph - N/A   Overcast
8:35 AM 28.4 °F 19.1 °F 26.6 °F 93% 30.38 in 10.0 mi SSE 10.4 mph - N/A   Overcast
8:50 AM 28.4 °F 18.5 °F 26.6 °F 93% 30.39 in 10.0 mi SE 11.5 mph - N/A   Overcast
8:53 AM 28.9 °F 19.2 °F 27.0 °F 92% 30.40 in 10.0 mi SE 11.5 mph - N/A   Overcast
9:53 AM 30.0 °F 22.4 °F 28.0 °F 92% 30.42 in 9.0 mi SE 8.1 mph - N/A   Overcast
10:53 AM 30.9 °F 24.3 °F 28.0 °F 89% 30.42 in 10.0 mi SE 6.9 mph - N/A   Overcast
11:21 AM 30.2 °F 24.3 °F 28.4 °F 93% 30.40 in 10.0 mi SE 5.8 mph - N/A   Overcast
11:53 AM 30.9 °F 25.2 °F 28.0 °F 89% 30.39 in 10.0 mi ESE 5.8 mph - N/A   Overcast
12:07 PM 32.0 °F 26.4 °F 28.4 °F 87% 30.38 in 10.0 mi SE 5.8 mph - N/A   Overcast
12:28 PM 32.0 °F 24.2 °F 28.4 °F 87% 30.37 in 10.0 mi SSE 9.2 mph - N/A   Overcast
12:53 PM 32.0 °F 24.8 °F 28.0 °F 85% 30.35 in 10.0 mi ESE 8.1 mph - N/A   Overcast
1:38 PM 33.8 °F 28.6 °F 28.4 °F 81% 30.33 in 10.0 mi SE 5.8 mph - N/A   Overcast
1:45 PM 33.8 °F 29.6 °F 28.4 °F 81% 30.32 in 10.0 mi ESE 4.6 mph - N/A   Overcast
1:53 PM 33.1 °F 27.7 °F 28.0 °F 82% 30.33 in 10.0 mi SE 5.8 mph - N/A   Overcast
2:31 PM 33.8 °F 28.6 °F 28.4 °F 81% 30.30 in 10.0 mi SE 5.8 mph - N/A   Overcast
2:53 PM 34.0 °F 31.0 °F 28.9 °F 82% 30.30 in 10.0 mi SE 3.5 mph - N/A   Overcast
3:53 PM 34.0 °F - 28.9 °F 82% 30.30 in 10.0 mi Calm Calm - N/A   Overcast
4:05 PM 33.8 °F 30.8 °F 28.4 °F 81% 30.30 in 10.0 mi SSE 3.5 mph - N/A   Overcast
4:53 PM 34.0 °F 29.8 °F 28.9 °F 82% 30.30 in 10.0 mi SSE 4.6 mph - N/A   Overcast
5:53 PM 34.0 °F - 28.9 °F 82% 30.30 in 10.0 mi Calm Calm - N/A   Overcast
6:53 PM 33.1 °F - 28.9 °F 85% 30.32 in 10.0 mi Calm Calm - N/A   Overcast
7:53 PM 30.9 °F - 28.0 °F 89% 30.32 in 8.0 mi Calm Calm - N/A   Clear
8:53 PM 30.0 °F - 28.0 °F 92% 30.32 in 8.0 mi Calm Calm - N/A   Partly Cloudy
9:53 PM 27.0 °F - 25.0 °F 92% 30.33 in 7.0 mi Calm Calm - N/A   Partly Cloudy
10:53 PM 26.1 °F 16.2 °F 24.1 °F 92% 30.33 in 7.0 mi SSW 10.4 mph - N/A   Clear
11:53 PM 26.1 °F 16.8 °F 24.1 °F 92% 30.31 in 9.0 mi SSW 9.2 mph - N/A   Clear